Regional Weather Roundup
Issued by NWS

Home | Current Version | Previous Version | Text Only | Print | Product List | Glossary On
Versions: 1 2 3 4 5 6 7 8 9 10 11 12 13 14 15 16 17 18 19 20 21 22 23 24 25 26 27 28 29 30 31 32 33 34 35 36 37 38 39 40 41 42 43 44 45 46 47 48 49 50
000
ASUS43 KMKX 310800
RWRWI

WISCONSIN REGIONAL WEATHER ROUNDUP
NATIONAL WEATHER SERVICE MILWAUKEE/SULLIVAN WI
300 AM CDT WED AUG 31 2016

NOTE: "FAIR" INDICATES FEW OR NO CLOUDS BELOW 12,000 FEET WITH NO
SIGNIFICANT WEATHER AND/OR OBSTRUCTIONS TO VISIBILITY.

WIZ001-002-006>008-014>016-023>028-310900-
NORTHWEST WISCONSIN

CITY           SKY/WX    TMP DP  RH WIND       PRES   REMARKS
SUPERIOR ARPT  CLEAR     47  47 100 SW3       30.18S
ASHLAND        CLEAR     52  49  89 W3        30.17S
HAYWARD        PTCLDY    48  46  93 CALM      30.19S FOG
SIREN          CLEAR     51  50  96 CALM      30.19S
CUMBERLAND     CLEAR     54  52  94 CALM      30.19S
RICE LAKE      FOG       51  50  95 CALM      30.20S VSB 1/2
CHETEK         NOT AVBL
LADYSMITH      CLEAR     54  52  94 N3        30.19F
EAU CLAIRE     NOT AVBL
MENOMONIE      PTCLDY    57  56  97 CALM      30.18S
NEW RICHMOND   CLEAR     53  53  99 CALM      30.19S
OSCEOLA        CLEAR     54  54 100 CALM      30.21S FOG
$$

WIZ003>005-009-010-017-018-310900-
NORTH CENTRAL WISCONSIN

CITY           SKY/WX    TMP DP  RH WIND       PRES   REMARKS
MANITOWISH WTR NOT AVBL
ARBOR VITAE    CLEAR     52  50  93 CALM      30.17R
WOODRUFF       CLEAR     52  50  93 CALM      30.17R
RHINELANDER    CLEAR     47  47 100 CALM      30.17S
EAGLE RIVER    FOG       47  47 100 CALM      30.16R VSB 3/4
LAND O LAKES   CLEAR     44  44 100 CALM      30.17S
PHILLIPS       CLEAR     48  48 100 CALM      30.17S
TOMAHAWK       CLEAR     44  43  97 CALM      30.17S
MEDFORD        CLEAR     49  49 100 CALM      30.16S
MERRILL        CLEAR     47  47 100 CALM      30.17S
$$

WIZ029-030-035-036-043>047-310900-
CENTRAL WISCONSIN

CITY           SKY/WX    TMP DP  RH WIND       PRES   REMARKS
WAUSAU         CLEAR     54  51  90 N5        30.14S
MOSINEE        CLEAR     54  50  87 CALM      30.16S
MARSHFIELD     CLEAR     55  51  86 N3        30.15S
STEVENS POINT  CLEAR     52  50  92 CALM      30.15S
WAUPACA        CLEAR     60  57  91 N5        30.13S
WAUTOMA        CLEAR     61  55  81 N6        30.13S
WISC RAPIDS    CLEAR     57  52  83 N3        30.15S
CAMP DOUGLAS   NOT AVBL
$$

WIZ011>013-019>022-031-037>040-048>050-310900-
NORTHEAST WISCONSIN

CITY           SKY/WX    TMP DP  RH WIND       PRES   REMARKS
ANTIGO         CLEAR     50  49  99 CALM      30.16S
SHAWANO        CLEAR     60  55  83 NW3       30.13F
OCONTO         NOT AVBL
STURGEON BAY   CLEAR     61  56  83 N6        30.12S
GREEN BAY      CLEAR     60  59  96 N7        30.11S
MANITOWOC      NOT AVBL
APPLETON       CLEAR     61  59  94 N8        30.11R
CLINTONVILLE   CLEAR     59  54  82 N3        30.12F
OSHKOSH        MOCLDY    67  61  81 NE10      30.10S
$$

WIZ032>034-041-042-053>061-310900-
SOUTHWEST WISCONSIN

CITY           SKY/WX    TMP DP  RH WIND       PRES   REMARKS
LA CROSSE      CLEAR     62  61  96 N7        30.15R
SPARTA         CLEAR     53  53 100 CALM      30.16R
VIROQUA        CLEAR     59  57  93 CALM      30.15S
BOSCOBEL       FOG       61  59  93 CALM      30.13R VSB 3/4
PRAIRIE DU CHI PTCLDY    65  61  87 CALM      30.13R
PLATTEVILLE    CLEAR     65  65 100 N6        30.12S
$$

WIZ056-057-062-063-064-067-068-310900-
SOUTH CENTRAL WISCONSIN

CITY           SKY/WX    TMP DP  RH WIND       PRES   REMARKS
REEDSBURG      NOT AVBL
BARABOO/DELLS  PTCLDY    63  57  79 N3        30.12S
LONE ROCK      NOT AVBL
MINERAL POINT  PTCLDY    66  64  94 N7        30.12S
MADISON        CLEAR     66  61  84 N8        30.09S
MIDDLETON      CLEAR     66  62  87 N6        30.10S
WATERTOWN      PTCLDY    67  65  93 N6        30.08S
MONROE         MOCLDY    66  63  88 N6        30.09F
JANESVILLE     PTCLDY    66  66 100 CALM      30.07S
$$

WIZ051-052-058>065-066-070>072-310900-
SOUTHEAST WISCONSIN

CITY           SKY/WX    TMP DP  RH WIND       PRES   REMARKS
MILWAUKEE      PTCLDY    69  62  78 N20G26    30.06R
WAUKESHA       CLOUDY    64  63  94 NE8       30.09S
MILWAUKEE/TIMM CLOUDY    68  59  73 NE13      30.08S
RACINE         CLOUDY    67  63  87 N17G24    30.07S
BURLINGTON     PTCLDY    66  64  94 N3        30.06S
KENOSHA        MOCLDY    69  67  93 N12G18    30.06R
FOND DU LAC    MOCLDY    69  62  78 NE10      30.10S
SHEBOYGAN      MOCLDY    65  58  78 N5        30.09S
WEST BEND      CLOUDY    64  59  82 NE9       30.09S
JUNEAU         PTCLDY    65  61  88 N8        30.10S
$$

LSZ147-162-310900-
LAKE SUPERIOR

STATION/POSITION TIME  TEMP    WIND        PRES    WAVE
                       AIR SEA DIR/SP/G            HT/PER
                 (UTC) (F)     (DEG/KT/KT) (MB)    (FT/S)
W MID LAKE BUOY  0650   67 68  350/ 10/ 12 1019.8S   1
DEVILS ISLAND    0700   65     350/ 12/ 13 1021.2R
PORT WING        0700   56     170/  3/  5 1021.7
SAXON HARBOR     0740   57     190/  5/  9 1021.0S
$$

LMZ867-665-643>646-310900-
LAKE MICHIGAN

STATION/POSITION TIME  TEMP    WIND        PRES    WAVE
                       AIR SEA DIR/SP/G            HT/PER
                 (UTC) (F)     (DEG/KT/KT) (MB)    (FT/S)
CHAMBERS ISLAND  0740   65     330/  9/ 11 1019.3F
S GREEN BAY BUOY 0700   67 72   20/ 12/ 16 1019.0
N MID LAKE BUOY  0650   67 71  350/ 14/ 16 1018.3F   2/ 4
NORTHPORT PIER   0700   66      10/  8/  9 1019.3F
SISTER BAY       0722   64      30/  7/  8   N/A
ALGOMA LAKESHORE 0600          360/  6/  9   N/A
KEWAUNEE LAKESHO 0700   64     360/  7/ 10 1018.7F
SHEBOYGAN LAKESH 0700   64      30/ 17/ 18 1018.4R
PORT WASHINGTON  0740   68      10/  5/ 12 1019.0S
ATWATER BUOY     0700   67     360/ 17/ 23   N/A
MILWAUKEE LAKESH 0710   68     350/ 21/ 27   N/A
S MID LAKE BUOY  0650   74 75  290/ 10/ 12 1015.8F   0
KENOSHA   LAKESH 0700   72     340/ 10/ 13 1016.9S
$$

TC  - TEMPERATURE IN CELSIUS
VSB - VISIBILITY IN STATUTE MILES
WCI - WIND CHILL INDEX
HX  - HEAT INDEX




USA.gov is the U.S. government's official web portal to all federal, state and local government web resources and services.